SWR9LT LIPZ-LSZH

Flight info

Callsign SWR9LT
Flight time 0h 46m
Altitude 30000
Route ROKIB8X ROKIB DCT EKPIS DCT SOTOV P66 KPT L856 NEGRA NEGRA2A
Aircraft A320/M-SDE3FGHIRWY/LB1

Departure

Time 2026-05-04 21:56
Airport Venice Marco Polo Airport (LIPZ)

Arrival

Time 2026-05-04 22:43
Airport Zürich Airport (LSZH)
Time Latitude Longitude Altitude Speed Heading
2026-05-04 21:29 45.50691 12.34393 14 ft 0 kts 81°
2026-05-04 21:43 45.50690 12.34393 13 ft 0 kts 81°
2026-05-04 21:44 45.50691 12.34393 14 ft 0 kts 81°
2026-05-04 21:44 45.50690 12.34393 14 ft 0 kts 81°
2026-05-04 21:49 45.50687 12.34362 13 ft 4 kts 80°
2026-05-04 21:49 45.50683 12.34324 14 ft 4 kts 80°
2026-05-04 21:49 45.50678 12.34287 14 ft 4 kts 78°
2026-05-04 21:50 45.50675 12.34264 17 ft 0 kts 78°
2026-05-04 21:52 45.50666 12.34285 16 ft 7 kts 126°
2026-05-04 21:52 45.50597 12.34333 15 ft 17 kts 176°
2026-05-04 21:52 45.50473 12.34343 17 ft 18 kts 174°
2026-05-04 21:52 45.50350 12.34348 20 ft 18 kts 178°
2026-05-04 21:53 45.50219 12.34355 17 ft 21 kts 186°
2026-05-04 21:53 45.50151 12.34196 18 ft 19 kts 242°
2026-05-04 21:53 45.50058 12.34051 14 ft 22 kts 222°
2026-05-04 21:53 45.49941 12.33899 16 ft 23 kts 225°
2026-05-04 21:54 45.49829 12.33764 16 ft 16 kts 218°
2026-05-04 21:54 45.49748 12.33668 18 ft 14 kts 215°
2026-05-04 21:54 45.49669 12.33590 17 ft 13 kts 215°
2026-05-04 21:54 45.49599 12.33521 18 ft 11 kts 205°
2026-05-04 21:55 45.49535 12.33564 18 ft 12 kts 133°
2026-05-04 21:55 45.49477 12.33656 18 ft 14 kts 131°
2026-05-04 21:55 45.49430 12.33786 15 ft 16 kts 78°
2026-05-04 21:55 45.49519 12.33910 15 ft 22 kts 41°
2026-05-04 21:56 45.49805 12.34280 11 ft 92 kts 42°
2026-05-04 21:56 45.50431 12.35083 12 ft 149 kts 41°
2026-05-04 21:56 45.51278 12.36133 385 ft 164 kts 42°
2026-05-04 21:56 45.52149 12.37241 1037 ft 172 kts 43°
2026-05-04 21:57 45.53060 12.38415 1553 ft 184 kts 43°
2026-05-04 21:57 45.53813 12.39955 2124 ft 197 kts 75°
2026-05-04 21:57 45.53843 12.41908 2717 ft 201 kts 109°
2026-05-04 21:57 45.53356 12.43788 3332 ft 207 kts 110°
2026-05-04 21:58 45.53003 12.45850 3979 ft 216 kts 101°
2026-05-04 21:58 45.52784 12.47948 4789 ft 216 kts 99°
2026-05-04 21:58 45.52535 12.50074 5583 ft 217 kts 111°
2026-05-04 21:58 45.51735 12.51867 6317 ft 216 kts 141°
2026-05-04 21:59 45.50427 12.52822 7022 ft 216 kts 170°
2026-05-04 21:59 45.48933 12.52723 7768 ft 216 kts 199°
2026-05-04 21:59 45.47539 12.51909 8535 ft 217 kts 211°
2026-05-04 21:59 45.46515 12.50341 9302 ft 221 kts 244°
2026-05-04 22:00 45.46258 12.48138 9744 ft 246 kts 277°
2026-05-04 22:00 45.46742 12.45655 10087 ft 272 kts 284°
2026-05-04 22:00 45.47343 12.42970 10380 ft 297 kts 284°
2026-05-04 22:00 45.47999 12.40062 10633 ft 320 kts 285°
2026-05-04 22:01 45.48703 12.36926 10914 ft 341 kts 285°
2026-05-04 22:01 45.49429 12.33658 11529 ft 349 kts 284°
2026-05-04 22:01 45.50161 12.30331 12261 ft 354 kts 284°
2026-05-04 22:01 45.50886 12.27006 13006 ft 358 kts 284°
2026-05-04 22:02 45.51628 12.23585 13731 ft 362 kts 284°
2026-05-04 22:02 45.52375 12.20126 14385 ft 366 kts 284°
2026-05-04 22:02 45.53133 12.16633 15054 ft 369 kts 285°
2026-05-04 22:02 45.53889 12.13167 15711 ft 372 kts 285°
2026-05-04 22:03 45.54663 12.09620 16386 ft 374 kts 285°
2026-05-04 22:03 45.55440 12.06054 17044 ft 377 kts 285°
2026-05-04 22:03 45.56224 12.02461 17693 ft 380 kts 286°
2026-05-04 22:03 45.56775 12.00078 18122 ft 383 kts 290°
2026-05-04 22:04 45.57988 11.96672 18714 ft 387 kts 302°
2026-05-04 22:04 45.60355 11.92806 19442 ft 394 kts 318°
2026-05-04 22:04 45.61824 11.91247 19807 ft 398 kts 326°
2026-05-04 22:04 45.64297 11.89398 20356 ft 403 kts 333°
2026-05-04 22:05 45.66840 11.87665 20905 ft 406 kts 333°
2026-05-04 22:05 45.69400 11.85914 21431 ft 410 kts 333°
2026-05-04 22:05 45.71990 11.84143 21957 ft 413 kts 333°
2026-05-04 22:05 45.74600 11.82353 22461 ft 416 kts 333°
2026-05-04 22:06 45.77190 11.80562 22949 ft 419 kts 332°
2026-05-04 22:06 45.79832 11.78731 23438 ft 423 kts 332°
2026-05-04 22:06 45.82492 11.76884 23870 ft 426 kts 332°
2026-05-04 22:06 45.85177 11.75022 24276 ft 429 kts 332°
2026-05-04 22:07 45.87870 11.73155 24690 ft 431 kts 332°
2026-05-04 22:07 45.90571 11.71282 25081 ft 433 kts 332°
2026-05-04 22:07 45.93330 11.69462 25457 ft 437 kts 337°
2026-05-04 22:07 45.96241 11.68169 25836 ft 440 kts 343°
2026-05-04 22:08 45.99215 11.67028 26234 ft 442 kts 343°
2026-05-04 22:08 46.02161 11.65889 26596 ft 445 kts 343°
2026-05-04 22:08 46.05163 11.64719 26961 ft 447 kts 342°
2026-05-04 22:08 46.08174 11.63542 27313 ft 449 kts 342°
2026-05-04 22:09 46.11199 11.62356 27662 ft 452 kts 342°
2026-05-04 22:09 46.14254 11.61154 28003 ft 454 kts 342°
2026-05-04 22:09 46.17315 11.59946 28333 ft 456 kts 342°
2026-05-04 22:09 46.20387 11.58734 28621 ft 458 kts 342°
2026-05-04 22:10 46.23479 11.57515 28914 ft 460 kts 342°
2026-05-04 22:10 46.26544 11.56309 29189 ft 462 kts 342°
2026-05-04 22:10 46.29668 11.55078 29480 ft 464 kts 342°
2026-05-04 22:10 46.32793 11.53843 29755 ft 466 kts 342°
2026-05-04 22:11 46.35942 11.52600 30001 ft 467 kts 342°
2026-05-04 22:11 46.42125 11.50159 30059 ft 458 kts 342°
2026-05-04 22:12 46.48271 11.47720 30055 ft 456 kts 342°
2026-05-04 22:12 46.54362 11.45298 30065 ft 456 kts 342°
2026-05-04 22:13 46.60492 11.42853 30072 ft 456 kts 342°
2026-05-04 22:13 46.66626 11.40409 30062 ft 456 kts 342°
2026-05-04 22:14 46.72758 11.37953 30066 ft 456 kts 342°
2026-05-04 22:14 46.78752 11.35171 30069 ft 453 kts 333°
2026-05-04 22:15 46.84167 11.30523 30073 ft 450 kts 324°
2026-05-04 22:15 46.89424 11.25638 30064 ft 450 kts 325°
2026-05-04 22:16 46.94738 11.20724 30045 ft 451 kts 325°
2026-05-04 22:16 47.00036 11.15854 30032 ft 451 kts 325°
2026-05-04 22:17 47.05368 11.10963 30028 ft 451 kts 326°
2026-05-04 22:17 47.10551 11.05761 30017 ft 449 kts 318°
2026-05-04 22:18 47.15372 10.99970 30015 ft 450 kts 318°
2026-05-04 22:18 47.20237 10.94157 30016 ft 450 kts 319°
2026-05-04 22:19 47.24439 10.89124 30019 ft 450 kts 318°
2026-05-04 22:19 47.29304 10.83278 30020 ft 450 kts 318°
2026-05-04 22:20 47.34164 10.77423 30016 ft 451 kts 318°
2026-05-04 22:20 47.39002 10.71587 30015 ft 452 kts 319°
2026-05-04 22:21 47.44099 10.66070 30006 ft 454 kts 323°
2026-05-04 22:21 47.49370 10.60887 30004 ft 455 kts 324°
2026-05-04 22:22 47.54634 10.55677 28928 ft 459 kts 323°
2026-05-04 22:22 47.57266 10.53003 27677 ft 454 kts 323°
2026-05-04 22:22 47.59794 10.50395 27419 ft 427 kts 322°
2026-05-04 22:22 47.62205 10.47891 26861 ft 421 kts 322°
2026-05-04 22:23 47.64601 10.45382 26215 ft 420 kts 322°
2026-05-04 22:23 47.66961 10.42912 25587 ft 419 kts 322°
2026-05-04 22:23 47.69293 10.40321 24951 ft 416 kts 315°
2026-05-04 22:23 47.71251 10.37213 24323 ft 411 kts 304°
2026-05-04 22:24 47.72756 10.33642 23717 ft 406 kts 293°
2026-05-04 22:24 47.73694 10.30131 23117 ft 401 kts 284°
2026-05-04 22:24 47.74239 10.26083 22533 ft 395 kts 273°
2026-05-04 22:24 47.74292 10.22040 22004 ft 389 kts 266°
2026-05-04 22:25 47.74203 10.18038 21486 ft 385 kts 266°
2026-05-04 22:25 47.74113 10.14081 20997 ft 381 kts 266°
2026-05-04 22:25 47.74022 10.10211 20522 ft 378 kts 266°
2026-05-04 22:25 47.73927 10.06266 20049 ft 374 kts 266°
2026-05-04 22:26 47.73831 10.02461 19586 ft 371 kts 266°
2026-05-04 22:26 47.73735 9.98645 19110 ft 368 kts 266°
2026-05-04 22:26 47.73642 9.94855 18640 ft 366 kts 266°
2026-05-04 22:26 47.73551 9.91073 18143 ft 364 kts 266°
2026-05-04 22:27 47.73460 9.87318 17636 ft 361 kts 266°
2026-05-04 22:27 47.73367 9.83603 17154 ft 358 kts 266°
2026-05-04 22:27 47.73270 9.79917 16672 ft 355 kts 266°
2026-05-04 22:27 47.73173 9.76306 16185 ft 353 kts 266°
2026-05-04 22:28 47.73074 9.72662 15703 ft 351 kts 266°
2026-05-04 22:28 47.72972 9.69040 15178 ft 350 kts 266°
2026-05-04 22:28 47.72871 9.65420 14681 ft 349 kts 266°
2026-05-04 22:28 47.72771 9.61861 14188 ft 348 kts 266°
2026-05-04 22:29 47.72668 9.58268 13671 ft 347 kts 266°
2026-05-04 22:29 47.72566 9.54686 13134 ft 345 kts 265°
2026-05-04 22:29 47.72464 9.51135 12620 ft 342 kts 265°
2026-05-04 22:29 47.72352 9.47602 12097 ft 339 kts 263°
2026-05-04 22:30 47.71916 9.44177 11577 ft 335 kts 251°
2026-05-04 22:30 47.71039 9.41039 11075 ft 331 kts 240°
2026-05-04 22:30 47.69753 9.38231 10625 ft 326 kts 230°
2026-05-04 22:30 47.68335 9.35694 10512 ft 311 kts 230°
2026-05-04 22:31 47.66989 9.33246 10396 ft 300 kts 230°
2026-05-04 22:31 47.65703 9.30888 10269 ft 288 kts 230°
2026-05-04 22:31 47.64460 9.28611 10089 ft 279 kts 230°
2026-05-04 22:31 47.63260 9.26422 9884 ft 274 kts 230°
2026-05-04 22:32 47.62052 9.24225 9764 ft 274 kts 230°
2026-05-04 22:32 47.60845 9.22031 9507 ft 273 kts 230°
2026-05-04 22:32 47.59747 9.19728 9157 ft 273 kts 241°
2026-05-04 22:32 47.59058 9.17100 8786 ft 274 kts 255°
2026-05-04 22:33 47.58707 9.14321 8420 ft 274 kts 258°
2026-05-04 22:33 47.58372 9.11572 8054 ft 274 kts 258°
2026-05-04 22:33 47.58027 9.08791 7690 ft 274 kts 258°
2026-05-04 22:33 47.57680 9.06022 7314 ft 273 kts 258°
2026-05-04 22:34 47.57439 9.03240 6946 ft 273 kts 268°
2026-05-04 22:34 47.57564 9.00448 6852 ft 273 kts 273°
2026-05-04 22:34 47.57702 8.97638 6729 ft 274 kts 272°
2026-05-04 22:34 47.57830 8.94861 6616 ft 273 kts 272°
2026-05-04 22:35 47.57959 8.92052 6476 ft 273 kts 272°
2026-05-04 22:35 47.58086 8.89251 6364 ft 272 kts 272°
2026-05-04 22:35 47.58213 8.86448 6237 ft 272 kts 272°
2026-05-04 22:35 47.58338 8.83654 6101 ft 271 kts 272°
2026-05-04 22:36 47.58463 8.80901 5981 ft 270 kts 272°
2026-05-04 22:36 47.58591 8.78128 5864 ft 270 kts 273°
2026-05-04 22:36 47.58721 8.75356 5732 ft 269 kts 272°
2026-05-04 22:36 47.58850 8.72589 5611 ft 269 kts 273°
2026-05-04 22:37 47.58978 8.69823 5487 ft 268 kts 272°
2026-05-04 22:37 47.59103 8.67066 5365 ft 268 kts 273°
2026-05-04 22:37 47.59225 8.64318 5237 ft 267 kts 273°
2026-05-04 22:37 47.59348 8.61564 5112 ft 267 kts 273°
2026-05-04 22:38 47.59470 8.58828 4989 ft 266 kts 273°
2026-05-04 22:38 47.59589 8.56157 4865 ft 257 kts 273°
2026-05-04 22:38 47.59701 8.53587 4752 ft 244 kts 273°
2026-05-04 22:38 47.59806 8.51135 4630 ft 232 kts 272°
2026-05-04 22:39 47.59906 8.48798 4553 ft 223 kts 272°
2026-05-04 22:39 47.60003 8.46536 4440 ft 217 kts 272°
2026-05-04 22:39 47.59937 8.44270 3957 ft 228 kts 251°
2026-05-04 22:39 47.58953 8.42426 3475 ft 235 kts 210°
2026-05-04 22:40 47.57420 8.41971 3433 ft 220 kts 172°
2026-05-04 22:40 47.56056 8.42845 3428 ft 214 kts 142°
2026-05-04 22:40 47.54961 8.44317 3209 ft 210 kts 137°
2026-05-04 22:40 47.53945 8.45742 2924 ft 196 kts 138°
2026-05-04 22:41 47.52983 8.47069 2676 ft 181 kts 138°
2026-05-04 22:41 47.52095 8.48288 2452 ft 167 kts 138°
2026-05-04 22:41 47.51268 8.49420 2239 ft 157 kts 137°
2026-05-04 22:41 47.50478 8.50502 2047 ft 153 kts 137°
2026-05-04 22:42 47.49704 8.51561 1849 ft 150 kts 137°
2026-05-04 22:42 47.48943 8.52610 1652 ft 148 kts 137°
2026-05-04 22:42 47.48197 8.53633 1458 ft 147 kts 139°
2026-05-04 22:42 47.47485 8.54588 1404 ft 119 kts 137°
2026-05-04 22:43 47.46990 8.55266 1394 ft 83 kts 137°
2026-05-04 22:43 47.46704 8.55651 1401 ft 18 kts 148°
2026-05-04 22:43 47.46597 8.55680 1397 ft 12 kts 172°
2026-05-04 22:43 47.46513 8.55703 1400 ft 13 kts 168°
2026-05-04 22:44 47.46483 8.55712 1399 ft 4 kts 168°
2026-05-04 22:44 47.46409 8.55742 1403 ft 15 kts 159°
2026-05-04 22:44 47.46330 8.55840 1397 ft 15 kts 138°
2026-05-04 22:44 47.46242 8.55944 1398 ft 17 kts 140°
2026-05-04 22:45 47.46132 8.55992 1399 ft 17 kts 184°
2026-05-04 22:45 47.45882 8.55923 1402 ft 21 kts 200°
2026-05-04 22:45 47.45733 8.55873 1399 ft 23 kts 185°
2026-05-04 22:46 47.45627 8.55857 1399 ft 16 kts 188°
2026-05-04 22:46 47.45511 8.55860 1405 ft 17 kts 143°
2026-05-04 22:46 47.45490 8.56003 1400 ft 14 kts 97°
2026-05-04 22:46 47.45447 8.56066 1399 ft 9 kts 171°
2026-05-04 22:47 47.45407 8.56061 1400 ft 0 kts 184°
2026-05-04 22:47 47.45404 8.56061 1399 ft 0 kts 183°